NSZ3628 EKCH-LFMT

Flight info

Callsign NSZ3628
Flight time 2h 7m
Altitude 38000
Route NEXEN T503 GIMRU DCT MICOS DCT SAS DCT BOMBI DCT GIGET DCT ABUKA DCT KRH DCT NATOR/N0440F390 DCT LUTIX DCT BENOT DCT NEMOS DCT GEVEA DCT INCUS DCT BALSI DCT ETIDO DCT KURIR DCT LUMID DCT LEKLA
Aircraft B38M/M-SDE1FGHILORVWXY/HB1

Departure

Time 2026-04-30 18:28
Airport Copenhagen Kastrup Airport (EKCH)

Arrival

Time 2026-04-30 20:35
Airport Montpellier-Méditerranée Airport (LFMT)
Time Latitude Longitude Altitude Speed Heading
2026-04-30 18:03 55.62786 12.64156 26 ft 0 kts 122°
2026-04-30 18:11 55.62801 12.64110 27 ft 2 kts 120°
2026-04-30 18:12 55.62821 12.64031 28 ft 2 kts 97°
2026-04-30 18:13 55.62825 12.63973 28 ft 2 kts 103°
2026-04-30 18:13 55.62836 12.63898 30 ft 2 kts 105°
2026-04-30 18:14 55.62841 12.63866 30 ft 0 kts 104°
2026-04-30 18:16 55.62838 12.63889 30 ft 5 kts 106°
2026-04-30 18:16 55.62714 12.63882 27 ft 14 kts 213°
2026-04-30 18:17 55.62625 12.63786 29 ft 16 kts 202°
2026-04-30 18:17 55.62589 12.63771 27 ft 0 kts 187°
2026-04-30 18:17 55.62572 12.63768 26 ft 6 kts 183°
2026-04-30 18:18 55.62509 12.63784 26 ft 11 kts 162°
2026-04-30 18:18 55.62434 12.63870 26 ft 15 kts 132°
2026-04-30 18:18 55.62374 12.64028 26 ft 16 kts 123°
2026-04-30 18:18 55.62306 12.64219 24 ft 20 kts 123°
2026-04-30 18:19 55.62248 12.64370 28 ft 13 kts 127°
2026-04-30 18:19 55.62157 12.64424 26 ft 15 kts 170°
2026-04-30 18:19 55.62056 12.64456 27 ft 15 kts 169°
2026-04-30 18:19 55.61945 12.64494 29 ft 17 kts 169°
2026-04-30 18:20 55.61822 12.64535 26 ft 19 kts 170°
2026-04-30 18:20 55.61716 12.64564 26 ft 12 kts 179°
2026-04-30 18:20 55.61632 12.64513 28 ft 14 kts 213°
2026-04-30 18:20 55.61546 12.64415 28 ft 16 kts 213°
2026-04-30 18:21 55.61448 12.64302 28 ft 19 kts 213°
2026-04-30 18:21 55.61311 12.64145 27 ft 27 kts 213°
2026-04-30 18:21 55.61155 12.63966 27 ft 20 kts 213°
2026-04-30 18:21 55.61033 12.63826 26 ft 22 kts 213°
2026-04-30 18:22 55.60903 12.63674 29 ft 23 kts 213°
2026-04-30 18:22 55.60669 12.63405 27 ft 17 kts 217°
2026-04-30 18:22 55.60572 12.63262 26 ft 14 kts 220°
2026-04-30 18:23 55.60507 12.63219 26 ft 11 kts 168°
2026-04-30 18:23 55.60467 12.63273 26 ft 0 kts 130°
2026-04-30 18:26 55.60411 12.63441 27 ft 12 kts 79°
2026-04-30 18:26 55.60431 12.63489 26 ft 0 kts 41°
2026-04-30 18:28 55.61100 12.64524 26 ft 141 kts 40°
2026-04-30 18:28 55.61994 12.65896 182 ft 196 kts 39°
2026-04-30 18:28 55.64457 12.69725 2083 ft 247 kts 38°
2026-04-30 18:29 55.65773 12.71720 3330 ft 249 kts 38°
2026-04-30 18:29 55.69676 12.78087 6610 ft 258 kts 60°
2026-04-30 18:30 55.70147 12.83327 8213 ft 273 kts 99°
2026-04-30 18:30 55.67158 12.89057 10337 ft 299 kts 164°
2026-04-30 18:31 55.65044 12.89130 10975 ft 316 kts 193°
2026-04-30 18:31 55.61359 12.84417 11997 ft 346 kts 223°
2026-04-30 18:32 55.57703 12.78596 13496 ft 360 kts 221°
2026-04-30 18:32 55.55805 12.75633 14220 ft 366 kts 221°
2026-04-30 18:32 55.51933 12.69639 15640 ft 374 kts 221°
2026-04-30 18:33 55.49996 12.66648 16339 ft 377 kts 221°
2026-04-30 18:33 55.46008 12.60500 17711 ft 384 kts 222°
2026-04-30 18:33 55.43983 12.57384 18384 ft 388 kts 222°
2026-04-30 18:34 55.41941 12.54249 18998 ft 391 kts 222°
2026-04-30 18:34 55.37805 12.47903 20123 ft 397 kts 222°
2026-04-30 18:34 55.35714 12.44706 20690 ft 400 kts 222°
2026-04-30 18:35 55.33605 12.41479 21241 ft 403 kts 222°
2026-04-30 18:35 55.31485 12.38241 21788 ft 406 kts 222°
2026-04-30 18:35 55.29338 12.34966 22325 ft 409 kts 222°
2026-04-30 18:36 55.25005 12.28374 23402 ft 415 kts 222°
2026-04-30 18:36 55.22813 12.25046 23909 ft 418 kts 222°
2026-04-30 18:36 55.18391 12.18349 24787 ft 423 kts 222°
2026-04-30 18:37 55.16163 12.14978 25229 ft 425 kts 222°
2026-04-30 18:37 55.13921 12.11590 25663 ft 427 kts 223°
2026-04-30 18:37 55.11668 12.08193 26088 ft 429 kts 222°
2026-04-30 18:37 55.09406 12.04787 26506 ft 431 kts 223°
2026-04-30 18:38 55.07128 12.01361 26918 ft 433 kts 223°
2026-04-30 18:38 55.04843 11.97928 27328 ft 435 kts 223°
2026-04-30 18:38 55.02544 11.94480 27722 ft 437 kts 223°
2026-04-30 18:38 55.00232 11.91017 28129 ft 439 kts 223°
2026-04-30 18:39 54.97904 11.87537 28413 ft 443 kts 223°
2026-04-30 18:39 54.93260 11.80606 28425 ft 441 kts 223°
2026-04-30 18:40 54.88604 11.73677 28427 ft 441 kts 223°
2026-04-30 18:40 54.83918 11.66726 28428 ft 441 kts 223°
2026-04-30 18:40 54.81610 11.63323 28647 ft 443 kts 220°
2026-04-30 18:41 54.79107 11.60179 29085 ft 444 kts 217°
2026-04-30 18:41 54.76905 11.57466 29388 ft 447 kts 218°
2026-04-30 18:41 54.74376 11.54315 29746 ft 449 kts 218°
2026-04-30 18:41 54.71844 11.51143 30105 ft 451 kts 218°
2026-04-30 18:42 54.69300 11.47954 30461 ft 453 kts 218°
2026-04-30 18:42 54.64177 11.41541 31026 ft 456 kts 218°
2026-04-30 18:42 54.61592 11.38314 31333 ft 458 kts 218°
2026-04-30 18:45 54.35299 11.06242 34513 ft 463 kts 216°
2026-04-30 18:45 54.33512 11.04086 34728 ft 463 kts 216°
2026-04-30 18:45 54.30831 11.01055 35010 ft 463 kts 207°
2026-04-30 18:46 54.27838 10.99073 35339 ft 461 kts 198°
2026-04-30 18:46 54.24798 10.97290 35556 ft 462 kts 200°
2026-04-30 18:46 54.21756 10.95507 35817 ft 462 kts 199°
2026-04-30 18:46 54.18707 10.93752 36073 ft 462 kts 199°
2026-04-30 18:47 54.15661 10.92011 36327 ft 461 kts 199°
2026-04-30 18:47 54.12612 10.90274 36580 ft 461 kts 199°
2026-04-30 18:47 54.09581 10.88552 36819 ft 460 kts 199°
2026-04-30 18:47 54.06537 10.86824 37057 ft 460 kts 199°
2026-04-30 18:48 54.03521 10.85114 37294 ft 459 kts 199°
2026-04-30 18:48 54.00475 10.83391 37504 ft 459 kts 199°
2026-04-30 18:48 53.97454 10.81685 37717 ft 458 kts 199°
2026-04-30 18:48 53.94420 10.79974 37926 ft 458 kts 199°
2026-04-30 18:49 53.91392 10.78268 38134 ft 457 kts 199°
2026-04-30 18:49 53.88373 10.76570 38325 ft 457 kts 199°
2026-04-30 18:49 53.85347 10.74872 38473 ft 457 kts 199°
2026-04-30 18:50 53.79351 10.71513 38459 ft 456 kts 198°
2026-04-30 18:50 53.73329 10.68150 38459 ft 456 kts 198°
2026-04-30 18:51 53.67295 10.64787 38448 ft 457 kts 198°
2026-04-30 18:51 53.61255 10.61433 38448 ft 457 kts 198°
2026-04-30 18:52 53.55213 10.58087 38442 ft 458 kts 198°
2026-04-30 18:52 53.49160 10.54744 38438 ft 458 kts 198°
2026-04-30 18:53 53.43103 10.51409 38427 ft 458 kts 198°
2026-04-30 18:53 53.37040 10.48082 38427 ft 458 kts 198°
2026-04-30 18:54 53.30977 10.44764 38429 ft 459 kts 198°
2026-04-30 18:54 53.24907 10.41452 38429 ft 459 kts 198°
2026-04-30 18:55 53.18870 10.38168 38429 ft 459 kts 198°
2026-04-30 18:55 53.09747 10.33224 38431 ft 459 kts 198°
2026-04-30 18:56 53.00625 10.28302 38425 ft 460 kts 198°
2026-04-30 18:57 52.91501 10.23401 38426 ft 460 kts 198°
2026-04-30 18:57 52.85399 10.20135 38436 ft 460 kts 198°
2026-04-30 18:58 52.76263 10.15264 38421 ft 460 kts 197°
2026-04-30 18:59 52.67163 10.10434 38424 ft 460 kts 197°
2026-04-30 19:00 52.54967 10.03993 38433 ft 460 kts 197°
2026-04-30 19:01 52.42742 9.97574 38435 ft 461 kts 197°
2026-04-30 19:02 52.33579 9.92787 38432 ft 462 kts 197°
2026-04-30 19:03 52.21352 9.86432 38437 ft 462 kts 197°
2026-04-30 19:04 52.09039 9.80070 38426 ft 463 kts 197°
2026-04-30 19:05 51.96788 9.73776 38426 ft 464 kts 197°
2026-04-30 19:06 51.84475 9.67486 38439 ft 464 kts 196°
2026-04-30 19:06 51.75231 9.62788 38433 ft 464 kts 196°
2026-04-30 19:07 51.65978 9.58106 38416 ft 464 kts 196°
2026-04-30 19:08 51.53631 9.51889 38401 ft 464 kts 196°
2026-04-30 19:09 51.44414 9.47271 38393 ft 464 kts 196°
2026-04-30 19:09 51.38248 9.44192 38413 ft 465 kts 196°
2026-04-30 19:10 51.25877 9.38042 38405 ft 465 kts 196°
2026-04-30 19:11 51.16607 9.33456 38399 ft 465 kts 196°
2026-04-30 19:12 51.10412 9.30402 38403 ft 466 kts 195°
2026-04-30 19:12 51.04219 9.27358 38399 ft 466 kts 195°
2026-04-30 19:13 50.91846 9.21301 38401 ft 467 kts 195°
2026-04-30 19:14 50.85640 9.18275 38396 ft 467 kts 195°
2026-04-30 19:14 50.79421 9.15252 38403 ft 467 kts 195°
2026-04-30 19:15 50.73208 9.12240 38395 ft 467 kts 195°
2026-04-30 19:15 50.63893 9.07740 38379 ft 467 kts 195°
2026-04-30 19:16 50.57666 9.04742 38372 ft 467 kts 195°
2026-04-30 19:17 50.48332 9.00264 38374 ft 467 kts 195°
2026-04-30 19:17 50.39021 8.95815 38366 ft 468 kts 195°
2026-04-30 19:18 50.29688 8.91374 38364 ft 468 kts 195°
2026-04-30 19:19 50.23460 8.88421 38355 ft 467 kts 195°
2026-04-30 19:19 50.14114 8.84004 38350 ft 468 kts 195°
2026-04-30 19:20 50.07882 8.81069 38347 ft 468 kts 195°
2026-04-30 19:21 49.98327 8.78507 38336 ft 465 kts 185°
2026-04-30 19:22 49.85541 8.75847 38347 ft 465 kts 185°
2026-04-30 19:23 49.66274 8.71894 38320 ft 465 kts 185°
2026-04-30 19:24 49.56635 8.69949 38321 ft 465 kts 185°
2026-04-30 19:25 49.40588 8.66709 38324 ft 466 kts 185°
2026-04-30 19:26 49.27731 8.64114 38318 ft 466 kts 185°
2026-04-30 19:27 49.18081 8.62176 38306 ft 466 kts 185°
2026-04-30 19:28 49.08467 8.60252 38305 ft 466 kts 185°
2026-04-30 19:29 48.95648 8.57083 38306 ft 468 kts 190°
2026-04-30 19:30 48.83975 8.53283 38299 ft 468 kts 189°
2026-04-30 19:31 48.71218 8.49210 38293 ft 468 kts 189°
2026-04-30 19:31 48.61652 8.46170 38296 ft 468 kts 189°
2026-04-30 19:32 48.55269 8.44148 38301 ft 468 kts 189°
2026-04-30 19:32 48.48902 8.42137 38292 ft 468 kts 189°
2026-04-30 19:33 48.42518 8.40124 38296 ft 468 kts 189°
2026-04-30 19:33 48.36149 8.38123 38292 ft 467 kts 189°
2026-04-30 19:34 48.29810 8.36136 38301 ft 468 kts 189°
2026-04-30 19:35 48.20244 8.33145 38293 ft 468 kts 190°
2026-04-30 19:35 48.17129 8.31766 38273 ft 469 kts 204°
2026-04-30 19:35 48.14311 8.29329 38314 ft 468 kts 212°
2026-04-30 19:36 48.08770 8.24134 38299 ft 471 kts 212°
2026-04-30 19:36 48.00504 8.16215 38294 ft 469 kts 212°
2026-04-30 19:37 47.95015 8.10949 38290 ft 469 kts 212°
2026-04-30 19:37 47.89527 8.05697 38285 ft 469 kts 212°
2026-04-30 19:38 47.84068 8.00486 38270 ft 469 kts 212°
2026-04-30 19:38 47.78566 7.95247 38263 ft 469 kts 212°
2026-04-30 19:39 47.73071 7.90027 38248 ft 468 kts 212°
2026-04-30 19:39 47.67586 7.84831 38241 ft 467 kts 212°
2026-04-30 19:40 47.62109 7.79655 38246 ft 466 kts 212°
2026-04-30 19:40 47.56650 7.74510 38237 ft 464 kts 212°
2026-04-30 19:41 47.51585 7.69746 38240 ft 463 kts 212°
2026-04-30 19:41 47.46078 7.64581 38236 ft 462 kts 212°
2026-04-30 19:42 47.40688 7.59537 38236 ft 461 kts 212°
2026-04-30 19:42 47.35274 7.54484 38237 ft 460 kts 212°
2026-04-30 19:43 47.29869 7.49451 38236 ft 459 kts 213°
2026-04-30 19:44 47.21769 7.41929 38232 ft 458 kts 213°
2026-04-30 19:44 47.16535 7.36633 38214 ft 455 kts 227°
2026-04-30 19:45 47.12486 7.29522 38209 ft 455 kts 232°
2026-04-30 19:45 47.08508 7.22300 38235 ft 454 kts 232°
2026-04-30 19:46 47.04572 7.15083 38232 ft 453 kts 232°
2026-04-30 19:46 47.00659 7.07916 38216 ft 453 kts 232°
2026-04-30 19:47 46.96721 7.00722 38223 ft 452 kts 232°
2026-04-30 19:47 46.92783 6.93544 38211 ft 452 kts 232°
2026-04-30 19:47 46.90693 6.90105 38190 ft 452 kts 221°
2026-04-30 19:48 46.88256 6.87218 38218 ft 452 kts 220°
2026-04-30 19:48 46.83392 6.81350 38221 ft 453 kts 220°
2026-04-30 19:49 46.78507 6.75531 38218 ft 453 kts 220°
2026-04-30 19:49 46.71171 6.66827 38210 ft 453 kts 220°
2026-04-30 19:50 46.66273 6.61035 38203 ft 453 kts 220°
2026-04-30 19:50 46.61375 6.55256 38218 ft 453 kts 219°
2026-04-30 19:51 46.56503 6.49521 38211 ft 453 kts 219°
2026-04-30 19:51 46.51605 6.43770 38213 ft 452 kts 219°
2026-04-30 19:52 46.46706 6.38032 38201 ft 452 kts 219°
2026-04-30 19:52 46.41822 6.32324 38210 ft 450 kts 219°
2026-04-30 19:53 46.36948 6.26641 38206 ft 449 kts 219°
2026-04-30 19:53 46.32078 6.20977 38214 ft 448 kts 219°
2026-04-30 19:54 46.27190 6.15392 38199 ft 448 kts 213°
2026-04-30 19:54 46.24428 6.13477 38204 ft 445 kts 196°
2026-04-30 19:54 46.21369 6.12539 38224 ft 446 kts 191°
2026-04-30 19:55 46.15258 6.11009 38214 ft 448 kts 189°
2026-04-30 19:55 46.09054 6.09590 38214 ft 448 kts 189°
2026-04-30 19:56 46.02921 6.08227 38211 ft 448 kts 189°
2026-04-30 19:56 45.96756 6.06864 38210 ft 448 kts 189°
2026-04-30 19:57 45.90590 6.05503 38206 ft 448 kts 189°
2026-04-30 19:57 45.84419 6.04142 38207 ft 448 kts 189°
2026-04-30 19:58 45.78254 6.02779 38203 ft 448 kts 189°
2026-04-30 19:58 45.72087 6.01418 38186 ft 448 kts 190°
2026-04-30 19:59 45.65916 6.00061 38187 ft 448 kts 190°
2026-04-30 20:00 45.56710 5.98040 38186 ft 448 kts 190°
2026-04-30 20:00 45.50525 5.96574 38173 ft 446 kts 198°
2026-04-30 20:00 45.47721 5.94894 38174 ft 441 kts 214°
2026-04-30 20:01 45.43103 5.89211 38176 ft 441 kts 225°
2026-04-30 20:01 45.38716 5.83089 38188 ft 440 kts 226°
2026-04-30 20:02 45.32234 5.73858 38195 ft 439 kts 226°
2026-04-30 20:03 45.25770 5.64649 38205 ft 439 kts 226°
2026-04-30 20:03 45.21458 5.58523 38210 ft 438 kts 226°
2026-04-30 20:04 45.17155 5.52425 38206 ft 437 kts 226°
2026-04-30 20:05 45.10733 5.43346 38222 ft 436 kts 226°
2026-04-30 20:05 45.04326 5.34329 37437 ft 428 kts 226°
2026-04-30 20:06 45.02218 5.31368 36943 ft 424 kts 226°
2026-04-30 20:06 45.00140 5.28453 36466 ft 420 kts 226°
2026-04-30 20:06 44.98071 5.25553 35982 ft 417 kts 225°
2026-04-30 20:06 44.96019 5.22679 35479 ft 414 kts 225°
2026-04-30 20:07 44.93977 5.19823 35003 ft 412 kts 225°
2026-04-30 20:07 44.91945 5.16983 34523 ft 410 kts 225°
2026-04-30 20:07 44.87905 5.11347 33478 ft 406 kts 225°
2026-04-30 20:08 44.85900 5.08555 32988 ft 403 kts 225°
2026-04-30 20:08 44.83913 5.05791 32538 ft 400 kts 225°
2026-04-30 20:08 44.81942 5.03051 32092 ft 397 kts 225°
2026-04-30 20:08 44.79988 5.00338 31643 ft 394 kts 225°
2026-04-30 20:09 44.78064 4.97669 31208 ft 391 kts 225°
2026-04-30 20:09 44.76132 4.94992 30769 ft 389 kts 225°
2026-04-30 20:09 44.72366 4.89570 29756 ft 386 kts 234°
2026-04-30 20:10 44.69592 4.83207 28949 ft 377 kts 238°
2026-04-30 20:10 44.68226 4.80088 28560 ft 371 kts 239°
2026-04-30 20:10 44.66893 4.77037 28173 ft 360 kts 239°
2026-04-30 20:11 44.64352 4.71222 27436 ft 343 kts 239°
2026-04-30 20:11 44.63081 4.68316 27043 ft 353 kts 239°
2026-04-30 20:11 44.61790 4.65369 26669 ft 356 kts 238°
2026-04-30 20:12 44.59182 4.59424 25940 ft 356 kts 238°
2026-04-30 20:12 44.57888 4.56478 25581 ft 354 kts 238°
2026-04-30 20:12 44.56596 4.53538 25210 ft 353 kts 238°
2026-04-30 20:13 44.55311 4.50620 24858 ft 351 kts 238°
2026-04-30 20:13 44.54047 4.47750 24492 ft 350 kts 238°
2026-04-30 20:13 44.52771 4.44858 24134 ft 348 kts 238°
2026-04-30 20:13 44.51500 4.41980 23772 ft 347 kts 238°
2026-04-30 20:14 44.50232 4.39112 23358 ft 345 kts 238°
2026-04-30 20:14 44.48974 4.36268 22979 ft 343 kts 238°
2026-04-30 20:14 44.47721 4.33438 22635 ft 341 kts 238°
2026-04-30 20:14 44.46473 4.30622 22283 ft 339 kts 238°
2026-04-30 20:15 44.45234 4.27829 21943 ft 337 kts 238°
2026-04-30 20:15 44.44000 4.25051 21601 ft 335 kts 238°
2026-04-30 20:15 44.42776 4.22299 21258 ft 333 kts 238°
2026-04-30 20:15 44.41551 4.19546 20921 ft 331 kts 238°
2026-04-30 20:16 44.40337 4.16820 20589 ft 330 kts 238°
2026-04-30 20:16 44.39127 4.14105 20258 ft 328 kts 238°
2026-04-30 20:16 44.38328 4.12315 20029 ft 327 kts 238°
2026-04-30 20:16 44.37125 4.09624 19702 ft 325 kts 238°
2026-04-30 20:17 44.35931 4.06952 19368 ft 323 kts 238°
2026-04-30 20:17 44.34742 4.04294 19053 ft 321 kts 238°
2026-04-30 20:17 44.33556 4.01644 18722 ft 320 kts 238°
2026-04-30 20:17 44.32380 3.99020 18378 ft 318 kts 238°
2026-04-30 20:18 44.31209 3.96412 18022 ft 316 kts 238°
2026-04-30 20:18 44.30047 3.93823 17689 ft 314 kts 238°
2026-04-30 20:18 44.28889 3.91247 17369 ft 312 kts 238°
2026-04-30 20:18 44.27739 3.88689 17045 ft 310 kts 238°
2026-04-30 20:19 44.26605 3.86170 16731 ft 309 kts 238°
2026-04-30 20:19 44.25462 3.83631 16418 ft 308 kts 238°
2026-04-30 20:19 44.24326 3.81110 16100 ft 307 kts 237°
2026-04-30 20:19 44.23061 3.78727 15731 ft 304 kts 222°
2026-04-30 20:20 44.21420 3.76887 15449 ft 304 kts 219°
2026-04-30 20:20 44.19768 3.75041 15151 ft 304 kts 218°
2026-04-30 20:20 44.18120 3.73215 14855 ft 303 kts 218°
2026-04-30 20:20 44.16468 3.71396 14548 ft 302 kts 218°
2026-04-30 20:21 44.14822 3.69591 14240 ft 301 kts 218°
2026-04-30 20:21 44.13175 3.67788 13904 ft 300 kts 218°
2026-04-30 20:21 44.11537 3.65998 13566 ft 299 kts 218°
2026-04-30 20:21 44.09909 3.64219 13247 ft 297 kts 218°
2026-04-30 20:22 44.08288 3.62450 12943 ft 295 kts 218°
2026-04-30 20:22 44.06673 3.60689 12630 ft 294 kts 218°
2026-04-30 20:22 44.05068 3.58939 12331 ft 292 kts 218°
2026-04-30 20:22 44.03474 3.57203 12016 ft 291 kts 218°
2026-04-30 20:23 44.01885 3.55475 11722 ft 289 kts 218°
2026-04-30 20:23 44.00302 3.53753 11428 ft 288 kts 217°
2026-04-30 20:23 43.98748 3.52064 11132 ft 286 kts 217°
2026-04-30 20:23 43.97161 3.50341 10828 ft 285 kts 217°
2026-04-30 20:24 43.95623 3.48672 10534 ft 284 kts 217°
2026-04-30 20:24 43.94076 3.46994 10335 ft 279 kts 217°
2026-04-30 20:24 43.92554 3.45344 10110 ft 277 kts 217°
2026-04-30 20:24 43.91043 3.43710 9782 ft 274 kts 217°
2026-04-30 20:25 43.88003 3.40615 9144 ft 268 kts 202°
2026-04-30 20:25 43.86216 3.40100 8774 ft 260 kts 175°
2026-04-30 20:26 43.83101 3.42259 8280 ft 258 kts 130°
2026-04-30 20:26 43.81122 3.46421 7751 ft 258 kts 123°
2026-04-30 20:26 43.80189 3.48524 7453 ft 255 kts 123°
2026-04-30 20:27 43.78371 3.52687 6874 ft 251 kts 123°
2026-04-30 20:27 43.76627 3.56729 6298 ft 236 kts 123°
2026-04-30 20:28 43.75012 3.60486 5799 ft 217 kts 122°
2026-04-30 20:28 43.73538 3.63919 5316 ft 197 kts 122°
2026-04-30 20:29 43.72218 3.67000 4776 ft 176 kts 122°
2026-04-30 20:30 43.70454 3.71110 4145 ft 163 kts 122°
2026-04-30 20:30 43.68710 3.75168 3657 ft 163 kts 121°
2026-04-30 20:31 43.66860 3.79106 3148 ft 164 kts 124°
2026-04-30 20:32 43.64923 3.82999 2618 ft 165 kts 124°
2026-04-30 20:32 43.63610 3.85620 2184 ft 167 kts 124°
2026-04-30 20:33 43.62959 3.86916 1895 ft 158 kts 124°
2026-04-30 20:33 43.61823 3.89179 1336 ft 136 kts 124°
2026-04-30 20:33 43.61282 3.90252 1129 ft 137 kts 124°
2026-04-30 20:34 43.60194 3.92426 698 ft 138 kts 124°
2026-04-30 20:34 43.59092 3.94613 255 ft 139 kts 124°
2026-04-30 20:35 43.58545 3.95702 49 ft 136 kts 124°
2026-04-30 20:35 43.58072 3.96642 21 ft 112 kts 124°
2026-04-30 20:35 43.57589 3.97601 21 ft 38 kts 124°
2026-04-30 20:36 43.57434 3.97907 17 ft 41 kts 125°
2026-04-30 20:36 43.57335 3.98103 18 ft 14 kts 125°
2026-04-30 20:36 43.57176 3.98046 16 ft 18 kts 274°
2026-04-30 20:37 43.57238 3.97898 17 ft 20 kts 304°
2026-04-30 20:37 43.57323 3.97730 17 ft 22 kts 304°
2026-04-30 20:37 43.57404 3.97566 19 ft 23 kts 304°
2026-04-30 20:37 43.57498 3.97381 21 ft 24 kts 305°
2026-04-30 20:38 43.57599 3.97179 20 ft 31 kts 304°
2026-04-30 20:38 43.57734 3.96912 14 ft 35 kts 305°
2026-04-30 20:38 43.57875 3.96632 14 ft 32 kts 304°
2026-04-30 20:39 43.58041 3.96297 17 ft 14 kts 292°
2026-04-30 20:39 43.57996 3.96220 18 ft 12 kts 211°
2026-04-30 20:39 43.57977 3.96112 18 ft 15 kts 303°
2026-04-30 20:40 43.58026 3.96010 18 ft 3 kts 293°
2026-04-30 20:40 43.58019 3.95975 17 ft 5 kts 223°
2026-04-30 20:40 43.57989 3.95954 17 ft 0 kts 207°
2026-04-30 20:41 43.57985 3.95951 17 ft 0 kts 207°